User: anonymous   Login
Location: Unspecified
(0.0000°N, 0.0000°E)
Time: 16:45:37
(UTC+00:00)
Language:

GEOEYE 1 - Orbit

View from above orbital plane
View from above orbital plane
View from above satellite
View from above satellite

Ground track
Ground track

The orbit data is extracted from the following two-line orbital elements,

1 33331U 08042A   17202.22549549 -.00000068 +00000-0 -40089-5 0  9991
2 33331 098.1090 276.9036 0010195 152.3406 207.8346 14.64158766474083
Epoch (UTC): 21 July 2017 05:24:42
Eccentricity: 0.0010195
inclination: 98.1090°
perigee height: 672 km
apogee height: 687 km
right ascension of ascending node: 276.9036°
argument of perigee: 152.3406°
revolutions per day: 14.64158766
mean anomaly at epoch: 207.8346°
orbit number at epoch: 47408

The dashed part of the orbit path shows where the satellite is in the earth's shadow,  

DLR